owner,sensor,date,latitude,longitude,vertical_datum,direction_of_sea_water_velocity,sea_water_speed,upward_sea_water_velocity,qcFlag 
TABS,ioos:station:wmo:42048:1,1999-10-01T00:00:00Z,27.9396,-96.8429,2.0,0.0,0.0,-99999.0,'11133222,11111222,99999999' 
TABS,ioos:station:wmo:42048:1,1999-10-01T16:00:00Z,27.9396,-96.8429,2.0,44.44896167,32.34456059,-99999.0,'11111222,11111222,99999999' 
TABS,ioos:station:wmo:42048:1,1999-10-01T16:30:00Z,27.9396,-96.8429,2.0,48.00913679,34.08003668,-99999.0,'11111222,11111222,99999999' 
TABS,ioos:station:wmo:42048:1,1999-10-01T17:00:00Z,27.9396,-96.8429,2.0,51.49517818,33.50564132,-99999.0,'11111222,11111222,99999999' 
TABS,ioos:station:wmo:42048:1,1999-10-01T17:30:00Z,27.9396,-96.8429,2.0,54.31397133,33.20508696,-99999.0,'11111222,11111222,99999999' 
TABS,ioos:station:wmo:42048:1,1999-10-01T18:00:00Z,27.9396,-96.8429,2.0,59.00181801,37.02826623,-99999.0,'11111222,11111222,99999999' 
TABS,ioos:station:wmo:42048:1,1999-10-01T18:30:00Z,27.9396,-96.8429,2.0,61.1879317,37.41135256,-99999.0,'11111222,11111222,99999999' 
TABS,ioos:station:wmo:42048:1,1999-10-01T19:00:00Z,27.9396,-96.8429,2.0,60.93530581,38.34928031,-99999.0,'11111222,11111222,99999999' 
TABS,ioos:station:wmo:42048:1,1999-10-01T19:30:00Z,27.9396,-96.8429,2.0,66.827036,38.24562851,-99999.0,'11111222,11111222,99999999' 
TABS,ioos:station:wmo:42048:1,1999-10-01T20:00:00Z,27.9396,-96.8429,2.0,64.29658909,35.39201322,-99999.0,'11111222,11111222,99999999' 
TABS,ioos:station:wmo:42048:1,1999-10-01T20:30:00Z,27.9396,-96.8429,2.0,63.8274863,38.51941069,-99999.0,'11111222,11111222,99999999' 
TABS,ioos:station:wmo:42048:1,1999-10-01T21:00:00Z,27.9396,-96.8429,2.0,65.35700779,37.86899127,-99999.0,'11111222,11111222,99999999' 
TABS,ioos:station:wmo:42048:1,1999-10-01T21:30:00Z,27.9396,-96.8429,2.0,65.07360879,32.53020289,-99999.0,'11111222,11111222,99999999' 
TABS,ioos:station:wmo:42048:1,1999-10-01T22:00:00Z,27.9396,-96.8429,2.0,65.13884094,35.79738678,-99999.0,'11111222,11111222,99999999' 
TABS,ioos:station:wmo:42048:1,1999-10-01T22:30:00Z,27.9396,-96.8429,2.0,74.37562204,25.99040015,-99999.0,'11111222,11111222,99999999' 
TABS,ioos:station:wmo:42048:1,1999-10-01T23:00:00Z,27.9396,-96.8429,2.0,81.98367358,10.68440452,-99999.0,'11111222,11111222,99999999' 
TABS,ioos:station:wmo:42048:1,1999-10-01T23:30:00Z,27.9396,-96.8429,2.0,75.97709845,10.44115894,-99999.0,'11111222,11111222,99999999' 
TABS,ioos:station:wmo:42048:1,1999-10-02T00:00:00Z,27.9396,-96.8429,2.0,64.346801,33.7241753,-99999.0,'11111222,11111222,99999999' 
TABS,ioos:station:wmo:42048:1,1999-10-02T00:30:00Z,27.9396,-96.8429,2.0,62.39057403,33.12166964,-99999.0,'11111222,11111222,99999999' 
TABS,ioos:station:wmo:42048:1,1999-10-02T01:00:00Z,27.9396,-96.8429,2.0,63.90958146,31.85611715,-99999.0,'11111222,11111222,99999999' 
TABS,ioos:station:wmo:42048:1,1999-10-02T01:30:00Z,27.9396,-96.8429,2.0,66.83495876,31.44526991,-99999.0,'11111222,11111222,99999999' 
TABS,ioos:station:wmo:42048:1,1999-10-02T02:00:00Z,27.9396,-96.8429,2.0,64.4813904,29.38683379,-99999.0,'11111222,11111222,99999999' 
TABS,ioos:station:wmo:42048:1,1999-10-02T02:30:00Z,27.9396,-96.8429,2.0,63.18205168,30.38845998,-99999.0,'11111222,11111222,99999999' 
TABS,ioos:station:wmo:42048:1,1999-10-02T03:00:00Z,27.9396,-96.8429,2.0,61.73643273,29.26957465,-99999.0,'11111222,11111222,99999999' 
TABS,ioos:station:wmo:42048:1,1999-10-02T03:30:00Z,27.9396,-96.8429,2.0,58.57796049,29.15569241,-99999.0,'11111222,11111222,99999999' 
TABS,ioos:station:wmo:42048:1,1999-10-02T04:00:00Z,27.9396,-96.8429,2.0,56.22607702,30.29221022,-99999.0,'11111222,11111222,99999999' 
TABS,ioos:station:wmo:42048:1,1999-10-02T04:30:00Z,27.9396,-96.8429,2.0,57.38349428,29.01591288,-99999.0,'11111222,11111222,99999999' 
TABS,ioos:station:wmo:42048:1,1999-10-02T05:00:00Z,27.9396,-96.8429,2.0,52.94322749,28.1941501,-99999.0,'11111222,11111222,99999999' 
TABS,ioos:station:wmo:42048:1,1999-10-02T05:30:00Z,27.9396,-96.8429,2.0,55.290473,30.08338079,-99999.0,'11111222,11111222,99999999' 
TABS,ioos:station:wmo:42048:1,1999-10-02T06:00:00Z,27.9396,-96.8429,2.0,55.39869278,28.59841254,-99999.0,'11111222,11111222,99999999' 
TABS,ioos:station:wmo:42048:1,1999-10-02T06:30:00Z,27.9396,-96.8429,2.0,55.65913884,29.05429744,-99999.0,'11111222,11111222,99999999' 
TABS,ioos:station:wmo:42048:1,1999-10-02T07:00:00Z,27.9396,-96.8429,2.0,51.84617051,29.18532851,-99999.0,'11111222,11111222,99999999' 
TABS,ioos:station:wmo:42048:1,1999-10-02T07:30:00Z,27.9396,-96.8429,2.0,53.93603533,29.86295364,-99999.0,'11111222,11111222,99999999' 
TABS,ioos:station:wmo:42048:1,1999-10-02T08:00:00Z,27.9396,-96.8429,2.0,50.83153535,29.02135248,-99999.0,'11111222,11111222,99999999' 
TABS,ioos:station:wmo:42048:1,1999-10-02T08:30:00Z,27.9396,-96.8429,2.0,52.19515055,29.41391677,-99999.0,'11111222,11111222,99999999' 
TABS,ioos:station:wmo:42048:1,1999-10-02T09:00:00Z,27.9396,-96.8429,2.0,50.68975127,30.81194574,-99999.0,'11111222,11111222,99999999' 
TABS,ioos:station:wmo:42048:1,1999-10-02T09:30:00Z,27.9396,-96.8429,2.0,47.42265503,29.94445024,-99999.0,'11111222,11111222,99999999' 
TABS,ioos:station:wmo:42048:1,1999-10-02T10:00:00Z,27.9396,-96.8429,2.0,51.81230678,28.4355218,-99999.0,'11111222,11111222,99999999' 
TABS,ioos:station:wmo:42048:1,1999-10-02T10:30:00Z,27.9396,-96.8429,2.0,52.07191245,27.39667316,-99999.0,'11111222,11111222,99999999' 
TABS,ioos:station:wmo:42048:1,1999-10-02T11:00:00Z,27.9396,-96.8429,2.0,56.48228668,28.59492437,-99999.0,'11111222,11111222,99999999' 
TABS,ioos:station:wmo:42048:1,1999-10-02T11:30:00Z,27.9396,-96.8429,2.0,50.57752947,28.15593898,-99999.0,'11111222,11111222,99999999' 
TABS,ioos:station:wmo:42048:1,1999-10-02T12:00:00Z,27.9396,-96.8429,2.0,51.20610055,27.34141547,-99999.0,'11111222,11111222,99999999' 
TABS,ioos:station:wmo:42048:1,1999-10-02T12:30:00Z,27.9396,-96.8429,2.0,54.02129703,26.8772506,-99999.0,'11111222,11111222,99999999' 
TABS,ioos:station:wmo:42048:1,1999-10-02T13:00:00Z,27.9396,-96.8429,2.0,51.18429297,26.3872166,-99999.0,'11111222,11111222,99999999' 
TABS,ioos:station:wmo:42048:1,1999-10-02T13:30:00Z,27.9396,-96.8429,2.0,51.28514381,25.96546168,-99999.0,'11111222,11111222,99999999' 
TABS,ioos:station:wmo:42048:1,1999-10-02T14:00:00Z,27.9396,-96.8429,2.0,51.11559449,24.69126161,-99999.0,'11111222,11111222,99999999' 
TABS,ioos:station:wmo:42048:1,1999-10-02T14:30:00Z,27.9396,-96.8429,2.0,52.21602407,24.31909538,-99999.0,'11111222,11111222,99999999' 
TABS,ioos:station:wmo:42048:1,1999-10-02T15:00:00Z,27.9396,-96.8429,2.0,58.59339181,23.73782846,-99999.0,'11111222,11111222,99999999' 
TABS,ioos:station:wmo:42048:1,1999-10-02T15:30:00Z,27.9396,-96.8429,2.0,63.11552181,24.0604655,-99999.0,'11111222,11111222,99999999' 
TABS,ioos:station:wmo:42048:1,1999-10-02T16:00:00Z,27.9396,-96.8429,2.0,64.76851938,23.06010624,-99999.0,'11111222,11111222,99999999' 
TABS,ioos:station:wmo:42048:1,1999-10-02T16:30:00Z,27.9396,-96.8429,2.0,69.72736179,23.66600938,-99999.0,'11111222,11111222,99999999' 
TABS,ioos:station:wmo:42048:1,1999-10-02T17:00:00Z,27.9396,-96.8429,2.0,67.50121291,22.57851191,-99999.0,'11111222,11111222,99999999' 
TABS,ioos:station:wmo:42048:1,1999-10-02T17:30:00Z,27.9396,-96.8429,2.0,67.80733445,20.12055914,-99999.0,'11111222,11111222,99999999' 
TABS,ioos:station:wmo:42048:1,1999-10-02T18:00:00Z,27.9396,-96.8429,2.0,68.54519497,18.72771743,-99999.0,'11111222,11111222,99999999' 
TABS,ioos:station:wmo:42048:1,1999-10-02T18:30:00Z,27.9396,-96.8429,2.0,63.04515921,19.06068467,-99999.0,'11111222,11111222,99999999' 
TABS,ioos:station:wmo:42048:1,1999-10-02T19:00:00Z,27.9396,-96.8429,2.0,69.59442769,20.50685008,-99999.0,'11111222,11111222,99999999' 
TABS,ioos:station:wmo:42048:1,1999-10-02T19:30:00Z,27.9396,-96.8429,2.0,70.22027884,18.05525408,-99999.0,'11111222,11111222,99999999' 
TABS,ioos:station:wmo:42048:1,1999-10-02T20:00:00Z,27.9396,-96.8429,2.0,70.94858642,17.3397722,-99999.0,'11111222,11111222,99999999' 
TABS,ioos:station:wmo:42048:1,1999-10-02T20:30:00Z,27.9396,-96.8429,2.0,82.1058617,20.60526632,-99999.0,'11111222,11111222,99999999' 
TABS,ioos:station:wmo:42048:1,1999-10-02T21:00:00Z,27.9396,-96.8429,2.0,80.89974632,22.63490446,-99999.0,'11111222,11111222,99999999' 
TABS,ioos:station:wmo:42048:1,1999-10-02T21:30:00Z,27.9396,-96.8429,2.0,79.84690744,21.95379238,-99999.0,'11111222,11111222,99999999' 
TABS,ioos:station:wmo:42048:1,1999-10-02T22:00:00Z,27.9396,-96.8429,2.0,107.6960814,10.79058849,-99999.0,'11111222,11111222,99999999' 
TABS,ioos:station:wmo:42048:1,1999-10-02T22:30:00Z,27.9396,-96.8429,2.0,102.0281549,11.42073991,-99999.0,'11111222,11111222,99999999' 
TABS,ioos:station:wmo:42048:1,1999-10-02T23:00:00Z,27.9396,-96.8429,2.0,104.433235,10.1503596,-99999.0,'11111222,11111222,99999999' 
TABS,ioos:station:wmo:42048:1,1999-10-02T23:30:00Z,27.9396,-96.8429,2.0,79.91536066,24.67116738,-99999.0,'11111222,11111222,99999999' 
TABS,ioos:station:wmo:42048:1,1999-10-03T00:00:00Z,27.9396,-96.8429,2.0,80.58439563,28.24046742,-99999.0,'11111222,11111222,99999999' 
TABS,ioos:station:wmo:42048:1,1999-10-03T00:30:00Z,27.9396,-96.8429,2.0,81.23959046,24.42494626,-99999.0,'11111222,11111222,99999999' 
TABS,ioos:station:wmo:42048:1,1999-10-03T01:00:00Z,27.9396,-96.8429,2.0,78.87950766,25.50896509,-99999.0,'11111222,11111222,99999999' 
TABS,ioos:station:wmo:42048:1,1999-10-03T01:30:00Z,27.9396,-96.8429,2.0,77.63018257,25.0208553,-99999.0,'11111222,11111222,99999999' 
TABS,ioos:station:wmo:42048:1,1999-10-03T02:00:00Z,27.9396,-96.8429,2.0,77.00707545,25.84160405,-99999.0,'11111222,11111222,99999999' 
TABS,ioos:station:wmo:42048:1,1999-10-03T02:30:00Z,27.9396,-96.8429,2.0,74.5220892,24.581491,-99999.0,'11111222,11111222,99999999' 
TABS,ioos:station:wmo:42048:1,1999-10-03T03:00:00Z,27.9396,-96.8429,2.0,72.97502977,24.9326212,-99999.0,'11111222,11111222,99999999' 
TABS,ioos:station:wmo:42048:1,1999-10-03T03:30:00Z,27.9396,-96.8429,2.0,74.79714635,25.01545922,-99999.0,'11111222,11111222,99999999' 
TABS,ioos:station:wmo:42048:1,1999-10-03T04:00:00Z,27.9396,-96.8429,2.0,71.12083798,24.8783862,-99999.0,'11111222,11111222,99999999' 
TABS,ioos:station:wmo:42048:1,1999-10-03T04:30:00Z,27.9396,-96.8429,2.0,71.0084167,24.73650339,-99999.0,'11111222,11111222,99999999' 
TABS,ioos:station:wmo:42048:1,1999-10-03T05:00:00Z,27.9396,-96.8429,2.0,71.36376545,26.09843865,-99999.0,'11111222,11111222,99999999' 
TABS,ioos:station:wmo:42048:1,1999-10-03T05:30:00Z,27.9396,-96.8429,2.0,67.99913902,25.0653087,-99999.0,'11111222,11111222,99999999' 
TABS,ioos:station:wmo:42048:1,1999-10-03T06:00:00Z,27.9396,-96.8429,2.0,66.79199181,23.8281787,-99999.0,'11111222,11111222,99999999' 
TABS,ioos:station:wmo:42048:1,1999-10-03T06:30:00Z,27.9396,-96.8429,2.0,69.9190754,23.00873964,-99999.0,'11111222,11111222,99999999' 
TABS,ioos:station:wmo:42048:1,1999-10-03T07:00:00Z,27.9396,-96.8429,2.0,65.26297491,23.13271493,-99999.0,'11111222,11111222,99999999' 
TABS,ioos:station:wmo:42048:1,1999-10-03T07:30:00Z,27.9396,-96.8429,2.0,65.2368536,23.46795688,-99999.0,'11111222,11111222,99999999' 
TABS,ioos:station:wmo:42048:1,1999-10-03T08:00:00Z,27.9396,-96.8429,2.0,65.72184754,21.74295288,-99999.0,'11111222,11111222,99999999' 
TABS,ioos:station:wmo:42048:1,1999-10-03T08:30:00Z,27.9396,-96.8429,2.0,63.26831585,21.52000929,-99999.0,'11111222,11111222,99999999' 
TABS,ioos:station:wmo:42048:1,1999-10-03T09:00:00Z,27.9396,-96.8429,2.0,64.64808505,18.80060105,-99999.0,'11111222,11111222,99999999' 
TABS,ioos:station:wmo:42048:1,1999-10-03T09:30:00Z,27.9396,-96.8429,2.0,63.65317513,18.79205151,-99999.0,'11111222,11111222,99999999' 
TABS,ioos:station:wmo:42048:1,1999-10-03T10:00:00Z,27.9396,-96.8429,2.0,65.58045449,19.47191311,-99999.0,'11111222,11111222,99999999' 
TABS,ioos:station:wmo:42048:1,1999-10-03T10:30:00Z,27.9396,-96.8429,2.0,60.58215917,16.08384593,-99999.0,'11111222,11111222,99999999' 
TABS,ioos:station:wmo:42048:1,1999-10-03T11:00:00Z,27.9396,-96.8429,2.0,63.20241826,16.52467851,-99999.0,'11111222,11111222,99999999' 
TABS,ioos:station:wmo:42048:1,1999-10-03T11:30:00Z,27.9396,-96.8429,2.0,63.43501094,17.32952683,-99999.0,'11111222,11111222,99999999' 
TABS,ioos:station:wmo:42048:1,1999-10-03T12:00:00Z,27.9396,-96.8429,2.0,55.88286475,16.74131715,-99999.0,'11111222,11111222,99999999' 
TABS,ioos:station:wmo:42048:1,1999-10-03T12:30:00Z,27.9396,-96.8429,2.0,52.94090084,17.55609581,-99999.0,'11111222,11111222,99999999' 
TABS,ioos:station:wmo:42048:1,1999-10-03T13:00:00Z,27.9396,-96.8429,2.0,55.68339158,18.76662996,-99999.0,'11111222,11111222,99999999' 
TABS,ioos:station:wmo:42048:1,1999-10-03T13:30:00Z,27.9396,-96.8429,2.0,53.76275495,18.65913717,-99999.0,'11111222,11111222,99999999' 
TABS,ioos:station:wmo:42048:1,1999-10-03T14:00:00Z,27.9396,-96.8429,2.0,56.42493952,20.74028206,-99999.0,'11111222,11111222,99999999' 
TABS,ioos:station:wmo:42048:1,1999-10-03T14:30:00Z,27.9396,-96.8429,2.0,60.04853534,20.28973386,-99999.0,'11111222,11111222,99999999' 
TABS,ioos:station:wmo:42048:1,1999-10-03T15:00:00Z,27.9396,-96.8429,2.0,61.46507848,21.205985,-99999.0,'11111222,11111222,99999999' 
TABS,ioos:station:wmo:42048:1,1999-10-03T15:30:00Z,27.9396,-96.8429,2.0,61.58559842,22.86452492,-99999.0,'11111222,11111222,99999999' 
TABS,ioos:station:wmo:42048:1,1999-10-03T16:00:00Z,27.9396,-96.8429,2.0,64.78819973,22.72478823,-99999.0,'11111222,11111222,99999999' 
TABS,ioos:station:wmo:42048:1,1999-10-03T16:30:00Z,27.9396,-96.8429,2.0,67.7090283,22.38267634,-99999.0,'11111222,11111222,99999999' 
TABS,ioos:station:wmo:42048:1,1999-10-03T17:00:00Z,27.9396,-96.8429,2.0,65.52584669,21.94149038,-99999.0,'11111222,11111222,99999999' 
TABS,ioos:station:wmo:42048:1,1999-10-03T17:30:00Z,27.9396,-96.8429,2.0,70.21488641,22.00923897,-99999.0,'11111222,11111222,99999999' 
TABS,ioos:station:wmo:42048:1,1999-10-03T18:00:00Z,27.9396,-96.8429,2.0,68.06986678,23.13398366,-99999.0,'11111222,11111222,99999999' 
TABS,ioos:station:wmo:42048:1,1999-10-03T18:30:00Z,27.9396,-96.8429,2.0,71.01704226,20.16676722,-99999.0,'11111222,11111222,99999999' 
TABS,ioos:station:wmo:42048:1,1999-10-03T19:00:00Z,27.9396,-96.8429,2.0,74.97579955,20.67681068,-99999.0,'11111222,11111222,99999999' 
TABS,ioos:station:wmo:42048:1,1999-10-03T19:30:00Z,27.9396,-96.8429,2.0,75.17832905,23.88472734,-99999.0,'11111222,11111222,99999999' 
TABS,ioos:station:wmo:42048:1,1999-10-03T20:00:00Z,27.9396,-96.8429,2.0,74.25254123,23.06572349,-99999.0,'11111222,11111222,99999999' 
TABS,ioos:station:wmo:42048:1,1999-10-03T20:30:00Z,27.9396,-96.8429,2.0,72.94861406,21.34843554,-99999.0,'11111222,11111222,99999999' 
TABS,ioos:station:wmo:42048:1,1999-10-03T21:00:00Z,27.9396,-96.8429,2.0,77.43085123,18.47271772,-99999.0,'11111222,11111222,99999999' 
TABS,ioos:station:wmo:42048:1,1999-10-03T21:30:00Z,27.9396,-96.8429,2.0,72.31434075,18.13721313,-99999.0,'11111222,11111222,99999999' 
TABS,ioos:station:wmo:42048:1,1999-10-03T22:00:00Z,27.9396,-96.8429,2.0,70.93435787,20.97033381,-99999.0,'11111222,11111222,99999999' 
TABS,ioos:station:wmo:42048:1,1999-10-03T22:30:00Z,27.9396,-96.8429,2.0,68.57702758,20.80761639,-99999.0,'11111222,11111222,99999999' 
TABS,ioos:station:wmo:42048:1,1999-10-03T23:00:00Z,27.9396,-96.8429,2.0,68.36606724,17.79340327,-99999.0,'11111222,11111222,99999999' 
TABS,ioos:station:wmo:42048:1,1999-10-03T23:30:00Z,27.9396,-96.8429,2.0,68.46979728,23.54271862,-99999.0,'11111222,11111222,99999999' 
TABS,ioos:station:wmo:42048:1,1999-10-04T00:00:00Z,27.9396,-96.8429,2.0,61.6852989,30.46497825,-99999.0,'11111222,11111222,99999999' 
TABS,ioos:station:wmo:42048:1,1999-10-04T00:30:00Z,27.9396,-96.8429,2.0,60.94546384,30.68097782,-99999.0,'11111222,11111222,99999999' 
TABS,ioos:station:wmo:42048:1,1999-10-04T01:00:00Z,27.9396,-96.8429,2.0,63.93869595,30.52350733,-99999.0,'11111222,11111222,99999999' 
TABS,ioos:station:wmo:42048:1,1999-10-04T01:30:00Z,27.9396,-96.8429,2.0,60.5182099,32.69341983,-99999.0,'11111222,11111222,99999999' 
TABS,ioos:station:wmo:42048:1,1999-10-04T02:00:00Z,27.9396,-96.8429,2.0,58.89750938,31.14766444,-99999.0,'11111222,11111222,99999999' 
TABS,ioos:station:wmo:42048:1,1999-10-04T02:30:00Z,27.9396,-96.8429,2.0,61.91000336,32.60000153,-99999.0,'11111222,11111222,99999999' 
TABS,ioos:station:wmo:42048:1,1999-10-04T03:00:00Z,27.9396,-96.8429,2.0,62.49943035,32.59279982,-99999.0,'11111222,11111222,99999999' 
TABS,ioos:station:wmo:42048:1,1999-10-04T03:30:00Z,27.9396,-96.8429,2.0,60.09667671,33.17693777,-99999.0,'11111222,11111222,99999999' 
TABS,ioos:station:wmo:42048:1,1999-10-04T04:00:00Z,27.9396,-96.8429,2.0,59.42755695,33.40355819,-99999.0,'11111222,11111222,99999999' 
TABS,ioos:station:wmo:42048:1,1999-10-04T04:30:00Z,27.9396,-96.8429,2.0,59.60231656,33.85375755,-99999.0,'11111222,11111222,99999999' 
TABS,ioos:station:wmo:42048:1,1999-10-04T05:00:00Z,27.9396,-96.8429,2.0,54.92166361,34.22672932,-99999.0,'11111222,11111222,99999999' 
TABS,ioos:station:wmo:42048:1,1999-10-04T05:30:00Z,27.9396,-96.8429,2.0,56.71076804,35.29088976,-99999.0,'11111222,11111222,99999999' 
TABS,ioos:station:wmo:42048:1,1999-10-04T06:00:00Z,27.9396,-96.8429,2.0,55.54280914,33.97011186,-99999.0,'11111222,11111222,99999999' 
TABS,ioos:station:wmo:42048:1,1999-10-04T06:30:00Z,27.9396,-96.8429,2.0,57.04758617,35.33455674,-99999.0,'11111222,11111222,99999999' 
TABS,ioos:station:wmo:42048:1,1999-10-04T07:00:00Z,27.9396,-96.8429,2.0,55.49406895,35.25199852,-99999.0,'11111222,11111222,99999999' 
TABS,ioos:station:wmo:42048:1,1999-10-04T07:30:00Z,27.9396,-96.8429,2.0,51.49086169,34.46610654,-99999.0,'11111222,11111222,99999999' 
TABS,ioos:station:wmo:42048:1,1999-10-04T08:00:00Z,27.9396,-96.8429,2.0,54.29793151,35.23131703,-99999.0,'11111222,11111222,99999999' 
TABS,ioos:station:wmo:42048:1,1999-10-04T08:30:00Z,27.9396,-96.8429,2.0,54.48617564,36.42620074,-99999.0,'11111222,11111222,99999999' 
TABS,ioos:station:wmo:42048:1,1999-10-04T09:00:00Z,27.9396,-96.8429,2.0,51.23282895,34.97517548,-99999.0,'11111222,11111222,99999999' 
TABS,ioos:station:wmo:42048:1,1999-10-04T09:30:00Z,27.9396,-96.8429,2.0,50.41913371,37.88640389,-99999.0,'11111222,11111222,99999999' 
TABS,ioos:station:wmo:42048:1,1999-10-04T10:00:00Z,27.9396,-96.8429,2.0,52.85153051,37.01043772,-99999.0,'11111222,11111222,99999999' 
TABS,ioos:station:wmo:42048:1,1999-10-04T10:30:00Z,27.9396,-96.8429,2.0,50.22621973,37.02955171,-99999.0,'11111222,11111222,99999999' 
TABS,ioos:station:wmo:42048:1,1999-10-04T11:00:00Z,27.9396,-96.8429,2.0,48.62852597,38.32422863,-99999.0,'11111222,11111222,99999999' 
TABS,ioos:station:wmo:42048:1,1999-10-04T11:30:00Z,27.9396,-96.8429,2.0,46.48421961,40.67935717,-99999.0,'11111222,11111222,99999999' 
TABS,ioos:station:wmo:42048:1,1999-10-04T12:00:00Z,27.9396,-96.8429,2.0,49.93572152,41.66874728,-99999.0,'11111222,11111222,99999999' 
TABS,ioos:station:wmo:42048:1,1999-10-04T12:30:00Z,27.9396,-96.8429,2.0,47.45256901,37.01558861,-99999.0,'11111222,11111222,99999999' 
TABS,ioos:station:wmo:42048:1,1999-10-04T13:00:00Z,27.9396,-96.8429,2.0,45.47942181,38.03660474,-99999.0,'11111222,11111222,99999999' 
TABS,ioos:station:wmo:42048:1,1999-10-04T13:30:00Z,27.9396,-96.8429,2.0,42.53351005,36.80365199,-99999.0,'11111222,11111222,99999999' 
TABS,ioos:station:wmo:42048:1,1999-10-04T14:00:00Z,27.9396,-96.8429,2.0,42.66280484,36.06416504,-99999.0,'11111222,11111222,99999999' 
TABS,ioos:station:wmo:42048:1,1999-10-04T14:30:00Z,27.9396,-96.8429,2.0,47.37982774,40.70081203,-99999.0,'11111222,11111222,99999999' 
TABS,ioos:station:wmo:42048:1,1999-10-04T15:00:00Z,27.9396,-96.8429,2.0,50.37424301,37.14496197,-99999.0,'11111222,11111222,99999999' 
TABS,ioos:station:wmo:42048:1,1999-10-04T15:30:00Z,27.9396,-96.8429,2.0,44.71170676,42.14409804,-99999.0,'11111222,11111222,99999999' 
TABS,ioos:station:wmo:42048:1,1999-10-04T16:00:00Z,27.9396,-96.8429,2.0,44.51530749,36.7708689,-99999.0,'11111222,11111222,99999999' 
TABS,ioos:station:wmo:42048:1,1999-10-04T16:30:00Z,27.9396,-96.8429,2.0,47.45256901,37.01558861,-99999.0,'11111222,11111222,99999999' 
TABS,ioos:station:wmo:42048:1,1999-10-04T17:00:00Z,27.9396,-96.8429,2.0,47.80610025,43.04370105,-99999.0,'11111222,11111222,99999999' 
TABS,ioos:station:wmo:42048:1,1999-10-04T17:30:00Z,27.9396,-96.8429,2.0,41.57456227,37.04079508,-99999.0,'11111222,11111222,99999999' 
TABS,ioos:station:wmo:42048:1,1999-10-04T18:00:00Z,27.9396,-96.8429,2.0,46.67520213,36.04249298,-99999.0,'11111222,11111222,99999999' 
TABS,ioos:station:wmo:42048:1,1999-10-04T18:30:00Z,27.9396,-96.8429,2.0,45.15149376,40.14259209,-99999.0,'11111222,11111222,99999999' 
TABS,ioos:station:wmo:42048:1,1999-10-04T19:00:00Z,27.9396,-96.8429,2.0,45.16630756,36.56464549,-99999.0,'11111222,11111222,99999999' 
TABS,ioos:station:wmo:42048:1,1999-10-04T19:30:00Z,27.9396,-96.8429,2.0,49.51566945,33.50064029,-99999.0,'11111222,11111222,99999999' 
TABS,ioos:station:wmo:42048:1,1999-10-04T20:00:00Z,27.9396,-96.8429,2.0,55.78087206,27.0289197,-99999.0,'11111222,11111222,99999999' 
TABS,ioos:station:wmo:42048:1,1999-10-04T20:30:00Z,27.9396,-96.8429,2.0,50.88269032,31.8745196,-99999.0,'11111222,11111222,99999999' 
TABS,ioos:station:wmo:42048:1,1999-10-04T21:00:00Z,27.9396,-96.8429,2.0,57.15720489,19.50816496,-99999.0,'11111222,11111222,99999999' 
TABS,ioos:station:wmo:42048:1,1999-10-04T21:30:00Z,27.9396,-96.8429,2.0,55.29833659,16.49380793,-99999.0,'11111222,11111222,99999999' 
TABS,ioos:station:wmo:42048:1,1999-10-04T22:00:00Z,27.9396,-96.8429,2.0,48.95312147,21.33467131,-99999.0,'11111222,11111222,99999999' 
TABS,ioos:station:wmo:42048:1,1999-10-04T22:30:00Z,27.9396,-96.8429,2.0,55.00607647,23.6446717,-99999.0,'11111222,11111222,99999999' 
TABS,ioos:station:wmo:42048:1,1999-10-04T23:00:00Z,27.9396,-96.8429,2.0,57.49608705,16.07865666,-99999.0,'11111222,11111222,99999999' 
TABS,ioos:station:wmo:42048:1,1999-10-04T23:30:00Z,27.9396,-96.8429,2.0,44.20796797,45.52081392,-99999.0,'11111222,11111222,99999999' 
TABS,ioos:station:wmo:42048:1,1999-10-05T00:00:00Z,27.9396,-96.8429,2.0,41.38453333,45.07585163,-99999.0,'11111222,11111222,99999999' 
TABS,ioos:station:wmo:42048:1,1999-10-05T00:30:00Z,27.9396,-96.8429,2.0,41.93745748,45.26291418,-99999.0,'11111222,11111222,99999999' 
TABS,ioos:station:wmo:42048:1,1999-10-05T01:00:00Z,27.9396,-96.8429,2.0,46.26746363,47.63529469,-99999.0,'11111222,11111222,99999999' 
TABS,ioos:station:wmo:42048:1,1999-10-05T01:30:00Z,27.9396,-96.8429,2.0,47.57909098,46.8296167,-99999.0,'11111222,11111222,99999999' 
TABS,ioos:station:wmo:42048:1,1999-10-05T02:00:00Z,27.9396,-96.8429,2.0,44.07232162,45.41635168,-99999.0,'11111222,11111222,99999999' 
TABS,ioos:station:wmo:42048:1,1999-10-05T02:30:00Z,27.9396,-96.8429,2.0,44.30849655,43.93574513,-99999.0,'11111222,11111222,99999999' 
TABS,ioos:station:wmo:42048:1,1999-10-05T03:00:00Z,27.9396,-96.8429,2.0,47.52372783,45.44740367,-99999.0,'11111222,11111222,99999999' 
TABS,ioos:station:wmo:42048:1,1999-10-05T03:30:00Z,27.9396,-96.8429,2.0,45.00010523,45.50939244,-99999.0,'11111222,11111222,99999999' 
TABS,ioos:station:wmo:42048:1,1999-10-05T04:00:00Z,27.9396,-96.8429,2.0,41.02328541,44.04566948,-99999.0,'11111222,11111222,99999999' 
TABS,ioos:station:wmo:42048:1,1999-10-05T04:30:00Z,27.9396,-96.8429,2.0,45.00010523,43.19008219,-99999.0,'11111222,11111222,99999999' 
TABS,ioos:station:wmo:42048:1,1999-10-05T05:00:00Z,27.9396,-96.8429,2.0,40.68584308,43.42627085,-99999.0,'11111222,11111222,99999999' 
TABS,ioos:station:wmo:42048:1,1999-10-05T05:30:00Z,27.9396,-96.8429,2.0,43.14942413,42.47684781,-99999.0,'11111222,11111222,99999999' 
TABS,ioos:station:wmo:42048:1,1999-10-05T06:00:00Z,27.9396,-96.8429,2.0,42.18696036,38.6121354,-99999.0,'11111222,11111222,99999999' 
TABS,ioos:station:wmo:42048:1,1999-10-05T06:30:00Z,27.9396,-96.8429,2.0,42.80953649,41.43845557,-99999.0,'11111222,11111222,99999999' 
TABS,ioos:station:wmo:42048:1,1999-10-05T07:00:00Z,27.9396,-96.8429,2.0,42.90790683,40.48056447,-99999.0,'11111222,11111222,99999999' 
TABS,ioos:station:wmo:42048:1,1999-10-05T07:30:00Z,27.9396,-96.8429,2.0,42.64492612,41.12471398,-99999.0,'11111222,11111222,99999999' 